Regional Weather Roundup
Issued by NWS Green Bay, WI

Home | Current Version | Previous Version | Text Only | Print | Product List | Glossary On
Versions: 1 2 3 4 5 6 7 8 9 10 11 12 13 14 15 16 17 18 19 20 21 22 23 24 25 26 27 28 29 30 31 32 33 34 35 36 37 38 39 40 41 42 43 44 45 46 47 48 49 50
000
ASUS43 KGRB 281211
RWRGRB

NORTH-CENTRAL AND NORTHEAST WISCONSIN REGIONAL WEATHER ROUNDUP
NATIONAL WEATHER SERVICE GREEN BAY WI
700 AM CDT SAT MAY 28 2016

WIZ005-009-010>012-018-019-281300-
NORTH CENTRAL WISCONSIN

CITY           SKY/WX    TMP DP  RH WIND       PRES   REMARKS
IRONWOOD       CLOUDY    63  63 100 CALM      29.75S
MANITOWISH WTR NOT AVBL
ARBOR VITAE    PTSUNNY   66  64  95 CALM      29.79S FOG
EAGLE RIVER      N/A     65  64  99 CALM      29.79F FOG
LAND O LAKES   CLOUDY    64  64 100 SE3       29.81S FOG
RHINELANDER    CLOUDY    67  65  93 CALM      29.79S FOG
PHILLIPS       CLOUDY    64  64 100 CALM      29.77F
ANTIGO         FOG       65  65 100 S8        29.80F VSB 1/4
TOMAHAWK       CLOUDY    66  64  96 CALM      29.79S FOG
MERRILL        CLOUDY    67  67 100 S3        29.78F FOG
$$

WIZ013-073-281300-
NORTHEAST WISCONSIN

CITY           SKY/WX    TMP DP  RH WIND       PRES   REMARKS
IRON MOUNTAIN  FOG       62  62 100 SE6       29.81R VSB 1/4
MARINETTE      CLOUDY    62  61  96 S6        29.82F FOG
OCONTO         CLOUDY   N/A N/A N/A SE6       29.81S
$$

WIZ017-030-035>037-045-281300-
CENTRAL WISCONSIN

CITY           SKY/WX    TMP DP  RH WIND       PRES   REMARKS
MEDFORD        CLOUDY    65  65 100 CALM      29.76F FOG
WAUSAU         RAIN      69  66  90 SE7       29.75F FOG
MOSINEE        LGT RAIN  66  66 100 SE9       29.77F
MARSHFIELD     HVY RAIN  68  65  90 S12       29.75S VSB 1/2
WISC RAPIDS    CLOUDY    68  65  90 S7        29.77S
STEVENS POINT  RAIN      65  65  97 SE7       29.76F
WAUPACA        CLOUDY    69  69 100 SE7       29.78S
SHAWANO        CLOUDY    69  66  93 S3        29.79F
CLINTONVILLE   CLOUDY    66  64  94 SE6       29.79F
WAUTOMA        CLOUDY    67  66  97 SE8       29.77F
$$

WIZ038-039-048-051-281300-
FOX VALLEY

CITY           SKY/WX    TMP DP  RH WIND       PRES   REMARKS
NWS GREEN BAY  CLOUDY    69  66  90 SE7       29.81S
APPLETON       PTSUNNY   68  66  94 SE8       29.79F
OSHKOSH        CLOUDY    69  65  86 S9        29.78F
FOND DU LAC    MOSUNNY   70  65  84 S16       29.79F
$$

WIZ022-050-052-281300-
EAST CENTRAL WISCONSIN

CITY           SKY/WX    TMP DP  RH WIND       PRES   REMARKS
EPHRAIM        FOG       56  56 100 S7        29.84R VSB 1/4
STURGEON BAY   NOT AVBL
MANITOWOC      CLOUDY    58  57  97 S9        29.84F FOG
SHEBOYGAN      CLOUDY    63  61  93 S8        29.83S
$$

LMZ563-521-522-541>543-281300-
LAKESHORE

STATION/POSITION TIME  TEMP    WIND        PRES    VSBY  WAVE
                       AIR SEA DIR/SP/G                  HT/PER
                 (UTC) (F)     (DEG/KT/KT) (MB)    (MI)  (FT/S)
SHEBOYGAN LKSHOR 1200   53     160/ 13/ 13 1010.8S
KEWAUNEE LKSHORE 1100   51     170/  9/ 10 1010.1R
ALGOMA MARINA    1117          190/  4/  7   N/A
NORTHPORT PIER   1100   58     150/  8/ 10 1010.8R
N MID LAKE BUOY  1150   52 46  190/ 14/ 17 1010.8R         2/ 4
SISTER BAY LKSHO 1135   58     160/ 13/ 16   N/A
CHAMBERS ISLAND  1100   64     160/  6/ 17 1010.2
MENOMINEE LKSHOR 1100   60     160/  7/  9 1008.7S
$$




USA.gov is the U.S. government's official web portal to all federal, state and local government web resources and services.